|  軌道要素
Epoch 2017 Mar. 28.0 TT = JDT 2457840.5
T 2017 Apr. 10.13851 TT                                 MPCW
q   0.9006618            (2000.0)            P               Q
z  -0.0028576      Peri.  152.47304     +0.43485739     +0.88754978
 +/-0.0000202      Node   142.73315     -0.86548949     +0.45860001
e   1.0025738      Incl.   14.55412     -0.24865035     -0.04406150
From 158 observations 2017 Mar. 1-June 25, mean residual 0".6.
 
 |